STARLINK-11187 [DTC] (60184 NORAD) Tracking and Keplerian Element Data

This shows tracking and keplerian element data for the satellite.

Feedback or suggestion? Click here.




ElementValue
Catalog60184
NameSTARLINK-11187 [DTC]
Epoch Orbit1596
Epoch Day286.69112801
Epoch Year2024
RAAN170.0222
Inclination53.1575
Eccentricity0.0001824
Argument of Perigee105.7271
Mean Anonmoly254.3948
Mean Motion15.69749755
Decay Rate0.00129201
L11 60184U 24124B 24286.69112801 .00129201 00000+0 10530-2 0 9997
L22 60184 53.1575 170.0222 0001824 105.7271 254.3948 15.69749755 15963



Live tracking and technical data element details for STARLINK-11187 [DTC] (NORAD 60184). STARLINK-11187 [DTC] can be tracked NOW for your location showing map with azimuth and elevation plus other details from your city location.







IsCatalogInMostPopularTable: catalog: 60184, numindb: 11
Update: records affected: 1



GetName: 60184 STARLINK-11187 [DTC]

Hit Count: updated at: Thu, 23 Jan 2025 13:22:40 GMT